Location: Asheville, NC
(35.6000°N, 82.5500°W)
Time: 06:33:48
(UTC-05:00)

SRMSAT - Pass Details

Date: 08 January 2018
Orbit: 849 x 866 km, 20.0° (Epoch: 18 January)

Event Time Altitude Azimuth Distance (km) Brightness Sun altitude
Rises 18:35:30 0° 217° (SW) 3,417 ? -12.4°
Reaches altitude 10° 18:40:10 10° 184° (S) 2,479 ? -13.3°
Maximum altitude 18:41:56 11° 167° (SSE) 2,383 ? -13.6°
Drops below altitude 10° 18:43:42 10° 149° (SSE) 2,477 ? -13.9°
Enters shadow 18:46:45 - 126° (SE) 3,006 ? -14.5°
